Location: ?????
(33.3204°N, 35.6423°E)
Time: 07:08:09
(UTC+00:00)

Daily predictions for brighter satellites

Satellite Brightness Start Highest point End
(mag) Time Altitude Azimuth Time Altitude Azimuth Time Altitude Azimuth
Ariane Rocket 3.6 16:50:10 10° SE 16:54:49 38° ENE 16:59:28 10° N
HJ-1C 3.6 16:52:50 10° S 16:56:10 75° W 16:59:32 10° NNW
Cosmos 1500 Rocket 4.2 16:52:26 10° SSE 16:56:16 32° E 17:00:07 10° NNE
ARGOS 3.3 16:52:20 10° SSE 16:57:36 58° ENE 17:02:53 10° N
CZ-4 R/B 3.6 16:54:26 10° SSW 16:57:46 27° W 17:01:09 10° NW
SJ-11-01 4.4 16:53:19 10° SSE 16:58:02 87° WSW 17:02:48 10° NNW
Meteor 2-3 Rocket 3.9 16:55:25 10° S 17:01:11 89° W 17:07:02 10° N
Cosmos 2218 Rocket 4.0 16:58:54 10° S 17:05:01 66° E 17:11:06 10° NNE
CZ-2C R/B 2.8 17:00:53 10° NNE 17:05:52 47° E 17:10:54 10° S
Cosmos 1328 Rocket 3.6 17:08:05 10° N 17:12:31 86° W 17:16:56 10° S
H-2A R/B 2.3 17:07:49 10° S 17:13:03 74° WSW 17:18:08 10° NNW
USA 186 1.1 17:11:00 10° SSE 17:13:19 51° ENE 17:15:33 10° N
FREGAT/IRIS 2.5 17:15:22 10° SSE 17:17:51 46° ENE 17:20:23 10° N
Cosmos 1805 Rocket 4.5 17:15:37 10° SSE 17:19:22 28° E 17:23:09 10° NNE
Cosmos 1933 4.1 17:18:46 10° NNW 17:22:46 55° W 17:26:46 10° S
Cosmos 405 3.3 17:19:57 10° NNW 17:23:23 66° W 17:26:48 10° S
Cosmos 1782 2.9 17:21:15 10° N 17:25:13 56° E 17:29:10 10° SSE
DMSP B5D2-2 4.0 17:23:13 10° NNE 17:28:28 77° ESE 17:33:42 10° S
ATLAS 5 CENTAUR R/B 3.5 17:24:44 10° N 17:29:56 30° NE 17:34:12 16° ESE
MetOp-A 4.3 17:25:06 10° SSE 17:30:19 56° ENE 17:35:33 10° N
Cosmos 1833 Rocket 2.9 17:25:45 10° S 17:31:01 44° ESE 17:36:20 10° NE
SL-4 R/B 1.9 17:27:08 10° SW 17:31:20 89° NNW 17:35:12 10° NE
SL-08 RB Rocket 3.8 17:27:12 10° SSE 17:31:47 85° W 17:36:26 10° NNW
Skynet4D Del rocket 4.4 17:27:19 10° SW 17:32:09 34° SSE 17:35:31 18° ESE
KM-V1 4.0 17:28:53 10° W 17:33:31 59° S 17:34:56 26° ESE
SPOT 3 Rocket 4.0 17:33:34 17° SE 17:37:17 43° ENE 17:42:11 10° N
Cosmos 1697 Rocket 4.4 17:33:41 10° NNE 17:37:18 17° ENE 17:39:35 14° E
Cosmos 2251 Rocket 4.5 17:34:13 10° SSW 17:39:17 51° WNW 17:44:26 10° N
Cosmos 1867 4.4 17:34:51 10° SSE 17:39:22 27° ESE 17:43:54 10° NE
Cosmos 1727 Rocket 4.1 17:35:29 10° N 17:41:48 63° E 17:47:39 12° SSE
Cosmos 2228 Rocket 3.1 17:39:21 10° N 17:43:42 58° E 17:46:37 20° SSE
Cosmos 1515 Rocket 4.1 17:42:18 10° NNW 17:46:42 59° W 17:51:04 10° S
IRIDIUM 104 4.3 17:42:16 10° SSE 17:47:22 60° E 17:52:31 10° N
Cosmos 1656 4.2 17:44:22 10° N 17:49:32 40° ENE 17:52:03 26° ESE
Cosmos 389 Rocket 3.2 17:47:07 10° NNE 17:50:14 31° ENE 17:50:29 31° E
Cosmos 1812 3.5 17:47:31 10° NNE 17:50:58 31° E 17:51:28 30° E
Resurs 01 Rocket 2.2 17:49:57 28° ESE 17:51:32 37° ENE 17:55:37 10° N
NOSS 3-2 (A) 4.0 17:50:02 24° SE 17:51:33 27° ESE 17:56:24 10° NE
Cosmos 972 Rocket 3.9 17:48:48 10° N 17:53:42 63° ENE 17:56:19 27° SSE
IRIDIUM 114 4.2 17:51:19 10° S 17:56:30 76° E 18:01:43 10° N
Cosmos 614 Rocket 3.9 17:53:14 10° SSW 17:58:22 86° WNW 18:03:35 10° NNE
Cosmos 1441 Rocket 3.0 17:56:30 15° S 17:59:36 83° E 18:03:24 10° N
FALCON 9 DEB 3.6 17:58:26 10° SW 18:01:53 64° NW 18:05:21 10° NE
Intercosmos 25 3.7 17:58:28 10° N 18:01:53 36° ENE 18:01:53 36° ENE
Cosmos 1821 Rocket 3.9 17:57:26 10° S 18:03:30 76° E 18:09:40 10° N
USA 267 4.0 17:57:09 10° NNE 18:03:30 55° NW 18:09:50 10° WSW
IRIDIUM 103 4.3 18:00:25 10° S 18:05:38 87° W 18:10:53 10° N
COSMOS 2406 4.0 18:02:57 10° SW 18:08:35 55° WNW 18:14:13 10° N
SWAS 4.3 18:05:09 10° SSW 18:09:27 88° ESE 18:13:47 10° NNE
GP-B 4.3 18:12:48 10° NNE 18:15:47 27° ENE 18:15:47 27° ENE
Sich 1 3.4 18:20:46 20° SSW 18:23:46 65° W 18:28:11 10° N
Cosmos 2082 Rocket 2.1 18:18:11 10° SSW 18:23:51 77° ESE 18:29:32 10° NNE
Cosmos 2369 4.3 18:19:54 10° N 18:25:15 39° ENE 18:26:08 37° E
Cosmos 1535 Rocket 4.4 18:24:07 36° SSE 18:26:37 64° E 18:32:39 10° NNE
Cosmos 1954 Rocket 4.1 18:26:42 52° SE 18:27:17 55° ESE 18:32:29 10° NNE
Cosmos 1818 3.9 18:25:47 10° NNW 18:31:02 47° ENE 18:31:46 44° E
Spot 2 Rocket 3.8 18:31:13 47° E 18:31:31 48° ENE 18:36:25 10° N
Cosmos 2123 Rocket 4.2 18:26:20 10° N 18:32:22 51° E 18:33:24 47° ESE
Meteor 2-20 4.4 18:28:39 10° N 18:34:45 62° E 18:36:00 51° SE
Cosmos 1000 Rocket 4.4 18:29:38 10° N 18:35:54 85° W 18:38:27 38° S
Cosmos 1605 Rocket 4.1 18:36:30 49° ESE 18:36:59 50° E 18:42:50 10° NNE
Cosmos 1190 Rocket 4.4 18:33:06 10° SSW 18:38:17 63° WNW 18:43:33 10° N
Terra 3.8 18:42:15 16° NE 18:42:15 16° NE 18:44:10 10° NNE
Meteor 1-20 Rocket 4.3 18:41:21 54° E 18:41:23 54° E 18:47:03 10° NNE
Cosmos 1666 Rocket 4.0 18:44:22 46° SW 18:45:13 56° W 18:49:28 10° N
MetOp-B 4.0 18:44:22 64° SSE 18:45:16 89° W 18:50:39 10° NNW
USA 238 DEB 3.4 18:40:22 10° SSW 18:46:55 80° ESE 18:53:41 10° NNE
USA 238 3.4 18:40:30 10° SSW 18:47:01 79° ESE 18:53:47 10° NNE
Meteor 1-4 Rocket 4.5 18:46:47 10° N 18:48:15 23° N 18:48:15 23° N
SL-8 R/B 3.9 18:46:15 10° NW 18:50:51 63° NNE 18:50:51 63° NNE
Meteor 1-27 Rocket 3.9 18:47:06 10° NNW 18:53:01 74° W 18:54:27 53° SSW
SPOT 5 4.3 18:56:40 23° NNE 18:56:40 23° NNE 18:58:47 10° N
SPOT 1/Viking Rocket 3.6 18:59:15 71° NE 18:59:15 71° NE 19:04:07 10° N
Cosmos 1980 Rocket 2.7 19:00:25 10° N 19:05:19 48° NE 19:05:19 48° NE
USA 32 4.2 19:12:32 67° WNW 19:12:32 67° WNW 19:17:33 10° N
ATLAS 5 CENTAUR R/B 3.1 19:08:51 10° NW 19:14:46 47° WSW 19:15:44 44° SW
CENTAUR R/B 3.0 19:17:41 45° NE 19:17:41 45° NE 19:22:13 10° NE
Cosmos 1697 Rocket 3.1 19:16:08 10° NNW 19:21:19 56° W 19:21:19 56° W
Resurs 01 Rocket 4.1 19:27:32 15° WSW 19:28:07 15° W 19:30:39 10° WNW
NOSS 3-2 (C) 4.0 19:48:32 51° NNW 19:48:32 51° NNW 19:53:45 10° NNE
SL-16 R/B 3.7 19:59:17 10° N 20:02:26 30° NNE 20:02:26 30° NNE
Lacrosse 5 4.1 20:04:02 10° NNW 20:06:22 19° NNE 20:06:22 19° NNE
USA 234 3.8 20:18:46 51° WNW 20:18:46 51° WNW 20:23:31 10° NW
Terra 4.1 20:21:09 20° NW 20:21:09 20° NW 20:22:52 10° NNW
Cosmos 2322 Rocket 3.8 20:21:33 10° NNW 20:24:25 29° N 20:24:25 29° N
ATLAS 3B R/B 3.9 20:34:00 32° NNE 20:34:00 32° NNE 20:37:18 10° NNE
Cosmos 2360 Rocket 4.1 20:36:08 10° N 20:38:35 23° NNE 20:38:35 23° NNE
Cosmos 2333 Rocket 4.5 20:57:07 10° N 20:59:20 18° NNE 20:59:20 18° NNE
Cosmos 2219 Rocket 4.3 21:54:41 10° NNW 21:56:38 22° N 21:56:38 22° N
Cosmos 2297 Rocket 4.1 22:34:19 25° NNE 22:34:19 25° NNE 22:36:36 10° NNE
Cosmos 2237 Rocket 4.0 22:45:00 10° N 22:47:32 26° N 22:47:32 26° N
Resurs 1-4 Rocket 3.8 23:05:45 10° NNE 23:08:21 30° NNE 23:08:21 30° NNE
Cosmos 2227 Rocket 3.7 23:22:42 30° NNW 23:22:42 30° NNW 23:25:50 10° N
USA 229 DEB 4.0 23:34:40 58° ENE 23:34:40 58° ENE 23:40:13 10° NE
USA 229 4.0 23:34:45 57° ENE 23:34:45 57° ENE 23:40:17 10° NE
SL-16 R/B 3.2 23:46:16 46° NW 23:46:16 46° NW 23:50:35 10° NNW
NOSS 3-1 (A) 4.0 23:46:16 44° ENE 23:46:16 44° ENE 23:50:41 10° NE
